RH
26 37 30 28 27 28 27 30 34 32 28 31 34 40 45 57 81 92 99 100 100 98 94 97 90 89 85 97 100 100 100 100 100 100 91 92 93 92 92 94 95 95 96 100
30 28 25 22 23 24 24 29 37 32 27 29 31 43 54 66 84 97 100 100 100 99 95 100 100 94 100 96 100 98 100 99 99 100 98 92 90 90 91 93 94 95 96 76
24 21 20 22 19 27 26 35 36 41 38 34 35 36 41 45 72 76 96 93 100 100 98 99 100 99 92 93 89 97 100 85 85 89 90 99 95 96 97 96 96 91 83 72
20 15 23 25 20 28 34 34 37 43 46 44 26 51 39 42 52 52 79 77 87 98 93 99 100 100 100 99 89 90 86 99 100 97 96 96 87 87 85 100 95 80 66 57
29 23 33 25 21 28 30 33 40 39 46 43 34 58 46 45 56 57 55 64 75 66 76 84 97 100 100 98 100 100 100 97 99 100 99 98 98 99 93 80 69 68 63 63
20 22 25 22 25 27 29 29 34 39 46 80 36 47 66 60 61 57 54 53 54 57 58 60 70 93 98 100 100 100 98 100 100 100 100 100 91 88 81 77 74 70 64 59
28 22 21 22 29 28 42 47 78 68 82 65 36 52 61 55 54 53 53 51 49 48 48 46 50 61 74 91 98 100 100 99 99 99 100 100 100 99 94 92 87 82 76 68
39 60 21 22 32 42 49 40 70 65 56 46 34 56 67 52 47 45 46 47 44 43 45 44 45 42 45 53 63 75 91 97 100 100 98 100 100 100 100 96 84 82 79 82
32 32 23 22 26 32 38 46 30 51 39 39 51 51 50 50 51 45 46 44 43 41 42 42 40 38 36 36 39 42 47 58 70 77 85 94 98 99 100 100 100 93 85 86
25 37 22 25 22 27 31 25 42 54 55 46 36 38 70 64 58 52 51 46 42 41 41 42 38 37 37 34 32 30 30 30 34 41 50 59 73 86 93 99 100 100 87 93
24 29 31 26 28 25 37 35 31 33 36 49 44 60 54 64 56 57 51 47 44 43 42 43 43 42 39 34 28 28 23 23 23 25 28 30 32 39 52 68 82 90 94 92
31 32 45 32 23 21 28 29 27 50 44 40 38 57 49 55 51 52 51 48 46 44 43 43 42 38 35 33 30 25 22 23 22 21 22 22 23 25 27 30 35 45 58 68
28 37 53 39 33 27 37 31 29 29 45 58 54 59 49 48 46 51 50 48 46 44 44 42 42 43 39 34 31 27 27 26 23 21 21 20 21 21 20 20 21 25 28 36
30 34 39 57 44 36 37 28 28 33 65 54 50 44 60 56 54 47 49 49 46 45 47 48 48 46 48 46 41 33 29 27 28 28 27 27 24 23 22 22 20 19 18 19
43 49 46 47 44 42 43 42 40 47 44 49 38 40 57 57 50 47 49 50 48 48 50 52 54 55 51 48 49 48 44 42 38 36 34 32 30 28 26 25 23 22 22 21
43 55 48 60 48 50 56 48 46 46 45 46 43 42 52 43 42 47 52 53 51 52 54 56 58 58 60 61 56 45 42 45 50 52 56 46 40 36 36 34 33 31 27 24
44 55 61 72 47 54 68 56 52 44 50 51 54 60 52 51 47 51 57 58 56 56 59 61 62 62 58 54 54 51 51 49 50 54 53 45 44 43 42 39 38 39 39 35
56 56 63 81 63 86 64 57 56 51 55 56 55 55 53 54 50 55 64 64 62 63 65 66 64 59 57 60 54 45 39 33 30 36 37 29 30 35 40 42 43 43 44 43
50 52 93 86 77 58 72 68 63 62 70 56 57 57 55 53 50 64 65 65 65 66 68 70 69 67 59 62 44 30 24 25 23 21 17 18 22 26 30 46 53 51 48 46
52 58 95 76 94 77 72 64 58 59 82 61 57 57 57 52 60 69 66 66 68 71 72 69 59 51 52 54 36 30 26 28 30 31 28 26 25 24 22 28 44 53 60 69
80 94 94 90 96 66 61 59 66 73 80 65 60 63 62 62 66 69 70 71 72 67 61 58 46 40 50 40 38 38 42 43 45 42 39 36 36 35 30 25 30 44 50 52
75 95 91 94 97 86 60 68 82 76 68 66 68 73 72 72 72 72 72 68 63 59 55 52 48 44 50 53 56 52 49 48 46 48 47 46 44 44 39 32 32 47 62 57
91 66 64 65 75 68 70 73 72 69 70 78 75 77 78 77 76 74 64 60 59 57 54 53 52 55 56 58 64 59 53 52 52 53 54 53 51 51 48 50 44 62 78 91
66 67 89 83 90 82 96 95 94 88 84 78 76 76 76 73 68 69 69 66 61 55 52 54 58 61 54 60 64 62 58 60 63 61 61 60 59 61 58 55 61 84 98 98
82 68 91 95 95 96 96 93 91 86 78 75 72 74 76 75 73 73 70 67 65 64 66 72 72 67 63 58 56 54 59 65 67 68 67 67 69 65 66 74 80 100 100 100
88 94 95 95 95 95 87 84 82 81 81 87 87 89 89 82 76 73 70 67 67 69 80 69 73 70 58 58 60 58 64 70 70 68 69 76 74 76 81 88 81 87 100 100
Wind_Speed
1 2 5 8 5 7 10 6 4 4 4 5 6 9 10 16 26 28 34 34 33 21 2 6 11 18 16 9 20 26 28 22 26 25 24 23 21 19 18 17 21 22 20 20
2 4 5 7 8 8 4 5 6 4 2 4 7 11 13 19 20 22 26 28 34 43 11 11 12 15 20 17 11 16 23 21 15 11 16 19 17 16 16 16 18 22 19 23
3 3 7 9 5 11 6 4 3 4 6 8 7 5 6 11 20 20 30 36 48 47 41 30 27 21 19 17 12 14 12 6 3 10 6 12 13 13 15 17 17 20 19 20
2 4 6 9 6 8 6 6 6 6 6 2 4 2 8 11 15 20 30 36 37 39 45 44 37 35 28 17 15 10 6 5 13 13 10 10 10 12 13 14 13 15 17 16
2 4 4 6 4 5 5 6 6 6 7 6 6 3 5 12 12 16 24 30 33 36 35 39 39 33 26 25 17 11 10 4 8 13 8 6 4 2 1 4 8 11 13 15
2 2 1 3 9 5 9 5 8 7 3 2 2 2 5 5 6 10 19 24 26 27 31 34 34 33 33 19 17 16 17 15 9 5 10 11 11 9 8 5 5 5 7 11
4 3 3 4 7 2 9 6 3 3 1 3 4 3 4 6 6 10 13 19 23 24 29 34 35 34 32 30 30 26 19 17 14 13 12 0 11 12 10 6 4 4 7 10
3 4 2 5 3 3 5 1 2 4 3 4 6 4 3 8 12 12 15 18 20 24 26 30 30 31 29 28 27 24 22 21 17 10 10 11 6 2 8 15 16 11 10 10
4 4 3 3 2 3 6 4 1 4 5 3 4 5 4 7 7 12 14 18 20 21 23 24 25 26 26 25 24 23 22 21 18 16 13 10 6 5 4 4 11 21 16 19
1 5 2 3 1 4 2 2 2 2 4 4 3 4 4 7 6 6 11 17 18 19 21 23 25 24 23 22 21 21 20 21 19 16 15 14 11 8 6 4 3 15 26 27
1 4 4 1 4 1 1 1 2 1 1 2 4 1 4 7 6 7 11 12 13 16 19 21 22 22 23 23 22 20 20 18 16 14 13 11 11 10 8 6 5 7 13 24
1 2 3 4 3 3 2 3 2 1 2 3 2 3 7 7 9 11 13 12 13 16 18 19 21 22 24 24 24 25 24 22 21 19 16 14 11 9 7 7 6 5 6 10
2 2 4 1 2 1 3 4 4 3 3 5 2 3 8 11 13 13 12 12 13 16 19 21 21 22 23 24 24 25 25 25 25 24 23 21 20 18 17 15 13 13 14 14
1 4 6 5 6 1 4 3 5 5 3 4 6 1 7 7 7 12 11 9 10 13 14 16 19 20 20 20 20 22 23 25 25 24 24 24 24 24 25 24 23 21 21 22
1 5 7 8 9 7 9 12 10 9 9 6 2 4 6 6 8 10 8 7 9 11 13 15 16 16 18 21 22 23 23 24 23 22 23 25 25 25 25 25 25 25 25 25
4 4 3 5 11 12 12 14 14 14 13 10 10 7 11 13 11 8 7 7 8 10 12 13 14 15 17 18 20 22 22 21 22 23 22 24 24 24 25 26 26 26 26 26
4 3 3 4 1 6 9 12 5 5 4 2 4 3 8 6 9 6 5 5 7 9 11 12 14 15 17 19 20 22 23 23 24 23 24 26 27 28 28 27 27 28 29 29
7 3 2 4 5 5 1 4 2 4 6 6 7 7 9 8 4 4 5 5 6 9 11 12 15 16 17 17 19 21 22 23 24 25 28 29 30 30 30 30 31 31 32 32
6 5 3 3 4 7 3 1 2 1 3 4 5 7 6 2 1 8 6 7 8 10 12 13 15 17 18 19 22 23 25 25 26 28 30 31 31 33 34 35 35 35 34 33
3 5 4 3 4 5 3 3 4 3 2 8 6 10 6 7 0 2 8 9 9 11 12 16 19 19 18 21 23 24 25 27 28 30 32 33 32 31 33 35 37 38 37 38
3 1 8 7 4 2 3 2 2 2 2 8 7 6 6 4 3 5 8 9 10 13 16 17 19 20 20 24 24 26 27 28 30 31 32 33 32 33 33 34 34 35 36 38
6 5 3 3 4 8 2 1 2 5 7 6 5 3 3 2 5 7 10 12 14 15 18 18 21 21 23 23 24 26 27 29 31 31 32 33 33 34 34 34 35 35 35 37
4 5 2 2 1 6 10 13 8 6 7 3 3 1 3 5 6 10 13 15 16 18 20 21 22 23 23 23 24 27 28 30 31 32 33 34 34 34 33 34 34 34 35 35
3 1 2 3 5 7 6 6 5 5 4 2 1 3 4 6 8 11 13 16 18 19 21 22 23 25 27 26 27 28 30 30 31 33 35 35 35 36 35 33 31 33 33 37
1 2 4 3 6 8 5 5 4 3 1 1 2 4 6 8 10 11 15 17 18 20 20 21 24 25 27 29 30 29 30 30 32 33 35 35 37 37 37 34 36 31 31 32
3 2 2 2 7 7 7 7 4 3 2 2 4 5 6 9 12 14 16 18 19 20 23 24 24 27 30 31 31 29 28 29 32 34 35 35 37 35 35 37 44 33 30 31
Wind_Direction
129 14 23 345 344 296 282 299 296 108 282 86 108 85 63 41 23 1 347 347 357 1 104 106 74 71 80 167 193 197 186 171 180 185 182 193 202 202 200 203 200 199 196 194
206 69 4 301 285 326 313 333 20 164 258 321 111 106 80 59 33 4 345 357 25 39 31 110 91 79 77 104 128 166 163 150 153 160 185 195 202 210 213 209 202 202 211 214
322 30 325 309 17 350 341 36 342 285 312 265 251 100 89 69 51 19 16 19 34 33 40 34 66 81 79 92 114 107 105 158 287 241 223 187 188 206 212 215 219 214 213 216
38 357 346 330 10 3 309 20 296 281 314 306 96 238 68 31 37 31 26 24 26 32 33 41 53 63 70 83 118 126 84 144 199 190 170 183 183 197 214 211 219 215 218 222
288 3 349 342 359 332 289 312 282 294 290 308 11 23 353 42 19 24 28 31 32 32 30 36 44 55 62 65 70 69 64 174 211 182 147 190 154 166 222 218 223 233 227 229
185 158 266 311 295 248 280 286 246 238 235 357 36 88 8 28 4 29 31 32 34 38 37 43 49 56 55 69 63 64 58 54 73 189 187 188 184 178 198 204 218 235 246 249
327 155 121 314 329 313 357 1 323 341 28 222 186 39 97 81 58 50 47 38 33 36 40 46 48 51 53 50 57 68 75 63 55 60 48 189 195 199 198 211 231 276 271 272
355 331 28 355 41 308 307 350 106 301 356 295 186 117 190 119 105 83 64 54 40 35 41 46 45 50 53 54 55 53 55 54 67 70 77 67 40 296 242 237 241 268 254 250
342 298 151 65 341 10 320 38 22 292 262 294 144 79 113 126 96 70 58 53 45 37 37 42 51 47 51 53 53 56 56 56 53 53 46 45 42 34 11 231 235 239 250 265
29 308 360 133 184 239 298 312 327 288 323 309 270 138 147 134 107 82 51 42 37 35 32 31 34 37 43 46 43 47 52 48 45 50 50 49 42 30 3 331 329 239 239 262
353 182 278 8 198 33 237 247 264 191 209 290 319 18 90 107 88 99 79 66 44 36 32 29 30 26 30 31 33 32 36 32 33 38 35 33 32 30 29 18 346 299 256 256
96 264 271 265 46 15 347 325 314 281 357 287 170 276 98 104 93 76 68 49 40 28 28 29 24 17 18 16 16 15 16 12 14 13 8 1 358 352 343 335 323 301 285 273
98 263 314 173 49 41 283 235 226 328 39 241 290 245 134 134 105 87 66 44 35 21 13 12 16 16 12 8 7 7 3 2 2 360 355 351 350 344 338 328 315 303 292 283
22 254 213 232 271 348 255 228 218 219 209 269 253 296 174 150 129 92 73 53 46 39 26 16 10 5 3 4 0 357 356 357 355 353 350 347 346 343 339 335 328 318 307 297
255 261 252 264 282 289 268 267 252 217 212 228 221 3 163 120 99 92 81 51 40 30 19 13 6 0 354 354 355 354 355 355 351 347 346 346 343 341 338 335 332 329 323 313
187 271 277 273 262 259 264 261 248 248 247 253 257 262 99 104 103 83 76 46 32 18 8 1 354 351 351 351 347 344 348 351 349 351 348 348 348 346 343 342 339 336 331 324
186 231 297 262 266 295 270 268 248 208 81 93 231 83 128 119 84 75 79 46 19 5 356 351 344 343 341 343 339 339 342 342 342 344 338 341 342 343 344 343 340 337 335 332
203 215 235 284 319 249 98 8 310 59 84 97 109 89 70 71 75 117 79 36 2 345 341 338 334 332 334 334 328 329 330 330 332 334 331 335 337 337 337 336 336 335 334 331
236 208 263 244 217 295 204 50 24 10 105 60 100 110 87 20 212 108 41 1 350 333 331 326 325 326 329 327 325 326 328 329 330 326 326 329 332 332 334 333 332 331 329 328
264 235 212 200 239 259 61 82 14 1 218 64 42 74 43 350 292 94 335 338 333 326 326 323 323 324 327 322 325 325 327 327 327 324 324 326 327 327 326 327 326 327 328 328
135 198 226 234 256 256 92 60 345 140 173 87 75 71 44 52 48 318 322 327 317 321 321 323 320 324 322 321 324 324 324 325 322 321 322 324 326 325 325 322 322 323 324 324
163 187 202 200 246 258 84 98 205 111 95 99 80 59 48 339 324 325 320 323 325 323 323 320 320 321 320 325 322 321 321 322 321 321 321 323 324 324 324 323 323 322 324 324
200 215 197 207 236 91 67 97 108 112 126 109 101 352 319 317 319 313 318 320 320 320 319 319 318 320 320 323 320 319 321 321 320 320 320 322 323 325 326 326 321 322 324 325
160 138 196 170 135 126 121 111 98 95 135 174 231 288 309 311 310 313 314 314 313 314 314 314 317 316 318 320 318 319 321 321 320 318 320 322 323 326 325 326 326 321 323 318
82 156 146 86 105 119 145 137 144 160 174 240 295 310 312 310 308 308 303 308 309 309 312 313 313 315 314 316 317 321 320 319 318 317 319 321 323 325 326 326 326 319 311 311
16 51 193 152 111 95 132 166 165 170 207 278 304 306 295 297 301 301 303 307 309 315 312 312 313 310 314 316 317 320 319 318 316 315 318 319 321 325 325 327 326 322 312 312